Location: Volkssternwarte_EN
(51.3230°N, 7.4010°E)
Time: 18:21:17
(UTC+02:00)

N. Korean satellite - Pass Details

Date: 04 October 2021
Orbit: 450 x 495 km, 97.3° (Epoch: 17 October)

Event Time Altitude Azimuth Distance (km) Brightness Sun altitude
Rises 05:58:36 0° 26° (NNE) 2,557 10.8 -15.9°
Reaches altitude 10° 06:01:06 10° 44° (NE) 1,679 10.2 -15.6°
Maximum altitude 06:03:48 20° 92° (E) 1,196 9.5 -15.1°
Drops below altitude 10° 06:06:30 10° 141° (SE) 1,683 9.7 -14.7°
Sets 06:09:00 0° 159° (SSE) 2,564 10.4 -14.4°
